User: anonymous   Login
Location: Caltech
(34.1382°N, 118.1253°W)
Time: 22:14:16
(UTC-07:00)
Language:

Iridium 91 - Orbit

View from above orbital plane
View from above orbital plane
View from above satellite
View from above satellite

Ground track
Ground track

The orbit data is extracted from the following two-line orbital elements,

1 27372U 02005A   17086.74996196 +.00000141 +00000-0 +43320-4 0  9993
2 27372 086.3963 321.2302 0001889 072.0649 354.1948 14.34218830799907
Epoch (UTC): 27 March 2017 17:59:56
Eccentricity: 0.0001889
inclination: 86.3963°
perigee height: 776 km
apogee height: 779 km
right ascension of ascending node: 321.2302°
argument of perigee: 72.0649°
revolutions per day: 14.34218830
mean anomaly at epoch: 354.1948°
orbit number at epoch: 79990

The dashed part of the orbit path shows where the satellite is in the earth's shadow,  

DLR